User: anonymous
Location: Radford
(37.1320°N, 80.5770°W)
Time: 06:10:48
(UTC-04:00)
Language:

Okean 1-7 - Orbit

View from above orbital plane
View from above orbital plane
View from above satellite
View from above satellite

Ground track
Ground track

The orbit data is extracted from the following two-line orbital elements,

1 23317U 94066A   14263.80851653  .00000980  00000-0  10965-3 0  6564
2 23317 082.5404 338.2727 0021886 140.4882 014.9759 14.85720178 77300
Epoch (UTC): 20 September 2014 19:24:15
Eccentricity: 0.0021886
inclination: 82.5404°
perigee height: 596 km
apogee height: 626 km
right ascension of ascending node: 338.2727°
argument of perigee: 140.4882°
revolutions per day: 14.85720178
mean anomaly at epoch: 14.9759°
orbit number at epoch: 7730

The dashed part of the orbit path shows where the satellite is in the earth's shadow,  

DLR